Погода в Камышле

Россия / Самарская область     54°06′46″N   52°08′34″E
темп.,
°C
ветер,
м/с
пор.,
м/с
влажн.,
%
обл.,
%
осадки,
мм/ч
давл.,
гПа
погр.,
м
16 мая, вс
вс1601:00+18ю33520 0.0 102027
04:00+17ююв22545 0.0 102117
07:00+20ююв36550 0.0 1021183
10:00+26ю57400 0.0 1021519
13:00+29ююз67312 0.0 10202053
16:00+30ююз58275 0.0 10193453
19:00+26ю334628 0.0 101840
22:00+22ююз4114895 0.0 1019255
17 мая, пн
пн1701:00+19ююз11505 0.0 101911
04:00+18ююв345017 0.0 101944
07:00+20ююв365552 0.0 1020157
10:00+25ююз4542100 0.0 1020510
13:00+29ююз343370 0.0 10201237
16:00+29ююз332781 0.0 10192979
19:00+26ю22415 0.0 101819
22:00+21ссв225130 0.0 101911
18 мая, вт
вт1801:00+20юв11457 0.0 101911
04:00+18ююв115337 0.0 101911
07:00+21в1150100 0.0 101959
10:00+27ю1135100 0.0 1019482
13:00+29зюз222451 0.0 10182790
16:00+30юз112312 0.0 10183206
19:00+27зсз11375 0.0 101711
22:00+20св6136557 0.3 1019359
19 мая, ср
ср1901:00+18в4106728 0.0 1018187
04:00+17в4117494 0.0 1019247
07:00+18в5106636 0.0 1019330
10:00+23в6849100 0.0 1018731
13:00+26вюв6639100 0.0 10181354
16:00+26юв673618 0.0 10181890
19:00+23вюв511520 0.0 1017338
22:00+20юв715510 0.0 1019473
20 мая, чт
чт2001:00+17юв615560 0.0 1019484
04:00+16юв716560 0.0 1019477
07:00+16юв816600 0.0 1019559
10:00+21ююв811490 0.0 10191013
13:00+24ююв8114787 0.0 10191925
16:00+17ю1379100 1.4 1020105
19:00+19ююв5107160 0.3 1019467
22:00+15ю39851 0.3 1020174